Home > Weather > Biarritz > Past weeks

Flag for France Past Weather in Biarritz, Aquitaine, France — Yesterday and Last 2 Weeks

Now
95 °F

Sunny.


Feels Like: 93 °F
Forecast: 68 / 73 °F
Wind: 3 mph from North

Location: Biarritz Airport

Current Time: Aug 27, 2016 at 3:38:08 PM

Latest Report: Aug 27, 2016 at 3:00 PM


Visibility: 10 mi

Pressure: 29.98 "Hg

Humidity: 26%

Dew Point: 55 °F

Location of BiarritzLocation

Past Weather in Biarritz — Graph

°F

Biarritz Temperature Yesterday

Maximum temperature yesterday: 84 °F (at 1:30 PM)
Minimum temperature yesterday: 70 °F (at 6:00 AM)
Average temperature yesterday: 74 °F

High & Low Weather Summary for the Past Weeks

 TemperatureHumidityPressure
High95 °F (Aug 15, 5:30 PM)100% (Aug 15, 8:00 AM)30.33 "Hg (Aug 15, 8:00 AM)
Low55 °F (Aug 22, 4:30 AM)26% (Aug 27, 1:30 PM)29.80 "Hg (Aug 19, 7:30 AM)
Average72 °F74%30.05 "Hg
* Reported Aug 12 2:00 PM — Aug 27 2:30 PM, Biarritz, Weather by CustomWeather, © 2016

Note: Actual official high and low records may vary slightly from our data, if they occured in-between our weather recording intervals... More about our weather records

Advertising

Biarritz Weather History for the Previous 24 Hours

Scroll right to see more
 ConditionsComfort  
Time TempWeatherWind HumidityBarometerVisibility
2:30 PM
Sat, Aug 27
95 °FPassing clouds.5 mph28%29.98 "HgN/A
2:00 PM95 °FPassing clouds.6 mph28%29.98 "HgN/A
1:30 PM95 °FPassing clouds.7 mph26%29.98 "HgN/A
1:00 PM93 °FPassing clouds.6 mph28%29.98 "HgN/A
12:30 PM91 °FPassing clouds.6 mph32%29.98 "HgN/A
12:00 PM90 °FPassing clouds.6 mph38%29.98 "HgN/A
11:30 AM88 °FPassing clouds.5 mph38%30.01 "HgN/A
11:00 AM84 °FSunny.2 mph51%30.01 "Hg10 mi
10:30 AM79 °FSunny.3 mph65%29.98 "Hg10 mi
10:00 AM75 °FSunny.3 mph74%29.98 "Hg10 mi
9:30 AM72 °FSunny.3 mph83%29.98 "Hg10 mi
9:00 AM70 °FSunny.3 mph88%29.98 "Hg10 mi
8:30 AM68 °FPassing clouds.3 mph94%29.98 "HgN/A
8:00 AM64 °FClear.5 mph100%29.98 "Hg6 mi
7:30 AM64 °FClear.5 mph100%29.98 "Hg4 mi
7:00 AM64 °FPassing clouds.5 mph100%29.98 "Hg4 mi
6:30 AM66 °FClear.5 mph94%29.98 "Hg4 mi
6:00 AM66 °FPassing clouds.3 mph94%29.98 "Hg4 mi
5:30 AM66 °FPassing clouds.2 mph94%29.98 "Hg6 mi
5:00 AM66 °FClear.3 mph94%29.98 "Hg10 mi
4:30 AM68 °FMild.No wind94%29.98 "HgN/A
4:00 AM68 °FMild.No wind94%30.01 "HgN/A
3:30 AM68 °FClear.3 mph88%30.01 "Hg10 mi
3:00 AM68 °FClear.1 mph88%30.01 "Hg10 mi
2:30 AM68 °FClear.2 mph94%30.01 "Hg10 mi
2:00 AM68 °FClear.3 mph88%30.01 "Hg10 mi
1:30 AM70 °FClear.2 mph88%30.01 "Hg10 mi
1:00 AM70 °FClear.3 mph88%30.01 "Hg10 mi
12:30 AM70 °FClear.2 mph88%30.01 "Hg10 mi
12:00 AM72 °FClear.3 mph83%30.01 "Hg10 mi
11:30 PM
Fri, Aug 26
72 °FClear.2 mph88%30.01 "Hg10 mi
11:00 PM72 °FClear.5 mph88%30.01 "Hg10 mi
10:30 PM72 °FPassing clouds.5 mph88%30.01 "HgN/A
10:00 PM72 °FPassing clouds.7 mph88%30.04 "HgN/A
9:30 PM72 °FSunny.No wind83%30.01 "Hg10 mi
9:00 PM72 °FSunny.No wind83%29.98 "Hg10 mi
8:30 PM72 °FPassing clouds.5 mph83%29.98 "HgN/A
8:00 PM73 °FSunny.7 mph78%29.98 "Hg10 mi
7:30 PM75 °FSunny.8 mph78%29.98 "Hg10 mi
7:00 PM75 °FSunny.9 mph78%29.98 "Hg10 mi
6:30 PM77 °FSunny.8 mph74%29.98 "Hg10 mi
6:00 PM77 °FPassing clouds.7 mph74%29.98 "HgN/A
5:30 PM77 °FSunny.8 mph74%30.01 "Hg10 mi
5:00 PM77 °FPassing clouds.9 mph74%30.01 "HgN/A
4:30 PM77 °FPassing clouds.8 mph74%30.01 "HgN/A
4:00 PM77 °FPassing clouds.12 mph69%30.04 "HgN/A
3:30 PM79 °FPassing clouds.14 mph70%30.04 "HgN/A
3:00 PM77 °FSunny.13 mph69%30.04 "Hg10 mi
Weather by CustomWeather, © 2016

See weather overviewHow to use our weather pages